Time,TemperatureF,DewpointF,PressureIn,WindDirection,WindDirectionDegrees,WindSpeedMPH,WindSpeedGustMPH,Humidity,HourlyPrecipIn,Conditions,Clouds,dailyrainin,SoftwareType,DateUTC
2013-07-01 00:34:00,72.2,72.0,30.58,East,83,6.3,6.3,100,0.00,,,0.00,TxWx,2013-07-01 04:34:00,
2013-07-01 00:39:00,72.3,72.0,30.58,East,84,3.6,4.2,100,0.00,,,0.00,TxWx,2013-07-01 04:39:00,
2013-07-01 00:44:00,72.3,72.0,30.58,East,84,4.2,4.5,100,0.00,,,0.00,TxWx,2013-07-01 04:44:00,
2013-07-01 00:49:00,72.3,72.0,30.58,East,84,5.4,5.4,100,0.00,,,0.00,TxWx,2013-07-01 04:49:00,
2013-07-01 00:54:00,72.3,72.0,30.58,East,84,3.6,3.9,100,0.00,,,0.00,TxWx,2013-07-01 04:54:00,
2013-07-01 01:00:00,72.4,72.0,30.58,East,84,5.7,5.7,100,0.00,,,0.00,TxWx,2013-07-01 05:00:00,
2013-07-01 01:05:00,72.4,72.0,30.58,East,83,2.7,3.0,100,0.00,,,0.00,TxWx,2013-07-01 05:05:00,
2013-07-01 01:10:00,72.3,72.0,30.58,East,83,4.5,4.5,100,0.00,,,0.00,TxWx,2013-07-01 05:10:00,
2013-07-01 01:16:00,72.3,72.0,30.58,East,84,3.9,4.5,100,0.00,,,0.00,TxWx,2013-07-01 05:16:00,
2013-07-01 01:21:00,72.4,72.0,30.58,East,84,5.4,6.3,100,0.00,,,0.00,TxWx,2013-07-01 05:21:00,
2013-07-01 01:26:00,72.3,72.0,30.58,East,83,5.4,6.6,100,0.00,,,0.00,TxWx,2013-07-01 05:26:00,
2013-07-01 01:31:00,72.3,72.0,30.58,East,83,5.1,5.1,100,0.00,,,0.00,TxWx,2013-07-01 05:31:00,
2013-07-01 01:37:00,72.3,72.0,30.58,East,84,5.4,6.3,100,0.00,,,0.00,TxWx,2013-07-01 05:37:00,
2013-07-01 01:42:00,72.4,72.0,30.58,East,84,4.2,4.2,100,0.00,,,0.00,TxWx,2013-07-01 05:42:00,
2013-07-01 01:47:00,72.3,72.0,30.58,East,83,4.5,5.1,100,0.00,,,0.00,TxWx,2013-07-01 05:47:00,
2013-07-01 01:52:00,72.4,72.0,30.58,East,84,8.1,8.1,100,0.00,,,0.00,TxWx,2013-07-01 05:52:00,
2013-07-01 01:57:00,72.4,72.0,30.59,East,84,5.4,5.4,100,0.00,,,0.00,TxWx,2013-07-01 05:57:00,
2013-07-01 02:02:00,72.5,72.0,30.59,East,84,3.3,4.5,100,0.00,,,0.00,TxWx,2013-07-01 06:02:00,
2013-07-01 02:08:00,72.5,73.0,30.58,East,83,3.3,3.3,100,0.00,,,0.00,TxWx,2013-07-01 06:08:00,
2013-07-01 02:13:00,72.5,73.0,30.58,East,84,4.2,4.2,100,0.00,,,0.00,TxWx,2013-07-01 06:13:00,
2013-07-01 02:18:00,72.5,73.0,30.58,East,83,3.3,3.3,100,0.00,,,0.00,TxWx,2013-07-01 06:18:00,
2013-07-01 02:23:00,72.5,73.0,30.58,East,84,5.4,5.4,100,0.00,,,0.00,TxWx,2013-07-01 06:23:00,
2013-07-01 02:29:00,72.5,73.0,30.58,East,84,4.2,4.5,100,0.00,,,0.00,TxWx,2013-07-01 06:29:00,
2013-07-01 02:34:00,72.5,73.0,30.58,East,83,5.7,5.7,100,0.00,,,0.00,TxWx,2013-07-01 06:34:00,
2013-07-01 02:39:00,72.5,73.0,30.58,East,84,4.2,4.8,100,0.00,,,0.00,TxWx,2013-07-01 06:39:00,
2013-07-01 02:44:00,72.5,72.0,30.58,East,83,7.8,7.8,100,0.00,,,0.00,TxWx,2013-07-01 06:44:00,
2013-07-01 02:50:00,72.4,72.0,30.58,East,83,4.2,4.5,100,0.00,,,0.00,TxWx,2013-07-01 06:50:00,
2013-07-01 02:55:00,72.4,72.0,30.58,East,83,4.2,4.2,100,0.00,,,0.00,TxWx,2013-07-01 06:55:00,
2013-07-01 03:00:00,72.4,72.0,30.58,East,83,7.8,7.8,100,0.00,,,0.00,TxWx,2013-07-01 07:00:00,
2013-07-01 03:05:00,72.4,72.0,30.58,East,83,5.4,5.4,100,0.00,,,0.00,TxWx,2013-07-01 07:05:00,
2013-07-01 03:10:00,72.4,72.0,30.58,East,83,6.9,6.9,100,0.00,,,0.00,TxWx,2013-07-01 07:10:00,
2013-07-01 03:16:00,72.4,72.0,30.58,East,84,8.7,8.7,100,0.00,,,0.00,TxWx,2013-07-01 07:16:00,
2013-07-01 03:21:00,72.5,72.0,30.58,East,84,5.4,6.0,100,0.00,,,0.00,TxWx,2013-07-01 07:21:00,
2013-07-01 03:26:00,72.5,73.0,30.58,East,83,5.1,5.1,100,0.00,,,0.00,TxWx,2013-07-01 07:26:00,
2013-07-01 03:31:00,72.5,73.0,30.58,East,84,3.6,4.2,100,0.00,,,0.00,TxWx,2013-07-01 07:31:00,
2013-07-01 03:36:00,72.5,73.0,30.58,East,83,2.7,3.3,100,0.00,,,0.00,TxWx,2013-07-01 07:36:00,
2013-07-01 03:41:00,72.5,72.0,30.58,East,83,5.4,5.4,100,0.00,,,0.00,TxWx,2013-07-01 07:41:00,
2013-07-01 03:46:00,72.5,72.0,30.58,East,83,6.0,6.0,100,0.00,,,0.00,TxWx,2013-07-01 07:46:00,
2013-07-01 03:52:00,72.4,72.0,30.58,East,83,10.2,12.0,100,0.00,,,0.00,TxWx,2013-07-01 07:52:00,
2013-07-01 03:57:00,72.5,72.0,30.58,East,83,6.6,6.6,100,0.00,,,0.00,TxWx,2013-07-01 07:57:00,
2013-07-01 04:02:00,72.5,72.0,30.58,East,84,5.1,5.1,100,0.00,,,0.00,TxWx,2013-07-01 08:02:00,
2013-07-01 04:07:00,72.4,72.0,30.58,East,83,4.8,4.8,100,0.00,,,0.00,TxWx,2013-07-01 08:07:00,
2013-07-01 04:12:00,72.3,72.0,30.58,East,83,3.6,3.9,100,0.00,,,0.00,TxWx,2013-07-01 08:12:00,
2013-07-01 04:18:00,72.0,72.0,30.58,East,83,5.7,5.7,100,0.00,,,0.00,TxWx,2013-07-01 08:18:00,
2013-07-01 04:23:00,71.9,72.0,30.58,East,84,4.5,4.5,100,0.00,,,0.00,TxWx,2013-07-01 08:23:00,
2013-07-01 04:28:00,71.8,72.0,30.58,East,84,5.4,6.3,100,0.00,,,0.00,TxWx,2013-07-01 08:28:00,
2013-07-01 04:33:00,71.8,72.0,30.59,East,83,5.7,5.7,100,0.00,,,0.00,TxWx,2013-07-01 08:33:00,
2013-07-01 04:38:00,71.7,72.0,30.59,East,83,7.5,7.5,100,0.00,,,0.00,TxWx,2013-07-01 08:38:00,
2013-07-01 04:43:00,71.7,72.0,30.59,East,83,4.2,4.2,100,0.00,,,0.00,TxWx,2013-07-01 08:43:00,
2013-07-01 04:48:00,71.5,72.0,30.59,East,83,8.1,8.4,100,0.00,,,0.00,TxWx,2013-07-01 08:48:00,
2013-07-01 04:53:00,71.4,71.0,30.59,East,83,6.3,6.9,100,0.00,,,0.00,TxWx,2013-07-01 08:53:00,
2013-07-01 04:59:00,71.3,71.0,30.59,East,83,5.1,5.1,100,0.00,,,0.00,TxWx,2013-07-01 08:59:00,
2013-07-01 05:04:00,71.3,71.0,30.59,East,84,4.8,4.8,100,0.00,,,0.00,TxWx,2013-07-01 09:04:00,
2013-07-01 05:09:00,71.2,71.0,30.59,East,83,5.4,5.4,100,0.00,,,0.00,TxWx,2013-07-01 09:09:00,
2013-07-01 05:14:00,71.1,71.0,30.60,East,83,5.1,5.1,100,0.00,,,0.00,TxWx,2013-07-01 09:14:00,
2013-07-01 05:19:00,71.1,71.0,30.60,East,83,4.8,4.8,100,0.00,,,0.00,TxWx,2013-07-01 09:19:00,
2013-07-01 05:24:00,71.1,71.0,30.60,East,83,4.5,4.8,100,0.00,,,0.00,TxWx,2013-07-01 09:24:00,
2013-07-01 05:29:00,71.1,71.0,30.60,East,83,4.2,4.2,100,0.00,,,0.00,TxWx,2013-07-01 09:29:00,
2013-07-01 05:34:00,71.0,71.0,30.60,East,83,9.9,9.9,100,0.00,,,0.00,TxWx,2013-07-01 09:34:00,
2013-07-01 05:39:00,71.0,71.0,30.61,East,84,3.0,3.0,100,0.00,,,0.00,TxWx,2013-07-01 09:39:00,
2013-07-01 05:45:00,71.0,71.0,30.60,East,83,6.6,6.9,100,0.00,,,0.00,TxWx,2013-07-01 09:45:00,
2013-07-01 05:50:00,71.1,71.0,30.61,East,84,3.0,3.0,100,0.00,,,0.00,TxWx,2013-07-01 09:50:00,
2013-07-01 05:55:00,71.2,71.0,30.61,East,83,2.1,2.1,100,0.00,,,0.00,TxWx,2013-07-01 09:55:00,
2013-07-01 06:00:00,71.1,71.0,30.61,East,83,0.0,0.0,100,0.00,,,0.00,TxWx,2013-07-01 10:00:00,
2013-07-01 06:05:00,71.0,71.0,30.61,East,83,1.8,2.4,100,0.00,,,0.00,TxWx,2013-07-01 10:05:00,
2013-07-01 06:10:00,70.9,71.0,30.62,East,83,8.7,8.7,100,0.00,,,0.00,TxWx,2013-07-01 10:10:00,
2013-07-01 06:16:00,70.8,71.0,30.62,East,83,6.9,7.2,100,0.00,,,0.00,TxWx,2013-07-01 10:16:00,
2013-07-01 06:21:00,70.8,71.0,30.61,East,83,3.9,3.9,100,0.00,,,0.00,TxWx,2013-07-01 10:21:00,
2013-07-01 06:26:00,70.8,71.0,30.61,East,83,4.2,4.5,100,0.00,,,0.00,TxWx,2013-07-01 10:26:00,
2013-07-01 06:32:00,70.9,71.0,30.62,East,84,4.2,4.5,100,0.00,,,0.00,TxWx,2013-07-01 10:32:00,
2013-07-01 06:37:00,70.9,71.0,30.61,East,83,3.9,3.9,100,0.00,,,0.00,TxWx,2013-07-01 10:37:00,
2013-07-01 06:42:00,70.9,71.0,30.61,East,83,6.0,6.0,100,0.00,,,0.00,TxWx,2013-07-01 10:42:00,
2013-07-01 06:47:00,70.9,71.0,30.61,East,83,5.7,5.7,100,0.00,,,0.00,TxWx,2013-07-01 10:47:00,
2013-07-01 06:53:00,71.1,71.0,30.62,East,84,3.0,3.0,100,0.00,,,0.00,TxWx,2013-07-01 10:53:00,
2013-07-01 06:58:00,71.1,71.0,30.61,East,84,1.8,3.0,100,0.00,,,0.00,TxWx,2013-07-01 10:58:00,
2013-07-01 07:03:00,71.1,71.0,30.62,East,83,4.5,4.5,100,0.00,,,0.00,TxWx,2013-07-01 11:03:00,
2013-07-01 07:08:00,71.0,71.0,30.62,East,83,3.3,3.9,100,0.00,,,0.00,TxWx,2013-07-01 11:08:00,
2013-07-01 07:13:00,71.1,71.0,30.62,East,83,4.8,5.1,100,0.00,,,0.00,TxWx,2013-07-01 11:13:00,
2013-07-01 07:19:00,71.1,71.0,30.62,East,83,6.0,6.0,100,0.00,,,0.00,TxWx,2013-07-01 11:19:00,
2013-07-01 07:24:00,71.1,71.0,30.62,East,83,6.3,6.6,100,0.00,,,0.00,TxWx,2013-07-01 11:24:00,
2013-07-01 07:29:00,71.2,71.0,30.62,East,83,3.0,3.9,100,0.00,,,0.00,TxWx,2013-07-01 11:29:00,
2013-07-01 07:34:00,71.3,71.0,30.62,East,83,7.2,7.2,100,0.00,,,0.00,TxWx,2013-07-01 11:34:00,
2013-07-01 07:39:00,71.3,71.0,30.62,East,83,6.3,6.6,100,0.00,,,0.00,TxWx,2013-07-01 11:39:00,
2013-07-01 07:44:00,71.4,71.0,30.62,East,84,3.9,4.5,100,0.00,,,0.00,TxWx,2013-07-01 11:44:00,
2013-07-01 07:49:00,71.3,71.0,30.62,East,83,9.0,9.0,100,0.00,,,0.00,TxWx,2013-07-01 11:49:00,
2013-07-01 07:54:00,71.4,71.0,30.63,East,83,6.3,8.1,100,0.00,,,0.00,TxWx,2013-07-01 11:54:00,
2013-07-01 08:00:00,71.2,71.0,30.63,East,83,6.0,6.9,100,0.00,,,0.00,TxWx,2013-07-01 12:00:00,
2013-07-01 08:05:00,71.3,71.0,30.63,East,83,4.8,4.8,100,0.00,,,0.00,TxWx,2013-07-01 12:05:00,
2013-07-01 08:10:00,71.3,71.0,30.63,East,83,6.0,6.0,100,0.00,,,0.00,TxWx,2013-07-01 12:10:00,
2013-07-01 08:16:00,71.1,71.0,30.63,East,83,10.2,10.8,100,0.00,,,0.00,TxWx,2013-07-01 12:16:00,
2013-07-01 08:21:00,71.3,71.0,30.63,East,83,4.2,4.2,100,0.00,,,0.00,TxWx,2013-07-01 12:21:00,
2013-07-01 08:26:00,71.4,71.0,30.63,East,83,6.0,6.0,100,0.00,,,0.00,TxWx,2013-07-01 12:26:00,
2013-07-01 08:31:00,71.5,72.0,30.63,East,83,4.8,4.8,100,0.00,,,0.00,TxWx,2013-07-01 12:31:00,
2013-07-01 08:36:00,71.6,72.0,30.63,East,83,7.5,7.5,100,0.00,,,0.00,TxWx,2013-07-01 12:36:00,
2013-07-01 08:41:00,71.7,72.0,30.63,East,83,8.7,9.6,100,0.00,,,0.00,TxWx,2013-07-01 12:41:00,
2013-07-01 08:47:00,71.8,72.0,30.63,East,83,5.7,6.0,100,0.00,,,0.00,TxWx,2013-07-01 12:47:00,
2013-07-01 08:52:00,71.9,72.0,30.63,East,83,8.4,8.4,100,0.00,,,0.00,TxWx,2013-07-01 12:52:00,
2013-07-01 08:57:00,72.1,72.0,30.63,East,83,5.7,5.7,100,0.00,,,0.00,TxWx,2013-07-01 12:57:00,
2013-07-01 09:02:00,72.1,72.0,30.63,East,83,3.3,4.5,100,0.00,,,0.00,TxWx,2013-07-01 13:02:00,
2013-07-01 09:08:00,71.7,72.0,30.63,East,83,6.3,7.2,100,0.00,,,0.00,TxWx,2013-07-01 13:08:00,
2013-07-01 09:13:00,71.7,72.0,30.64,East,83,11.1,12.0,100,0.00,,,0.00,TxWx,2013-07-01 13:13:00,
2013-07-01 09:18:00,72.0,72.0,30.64,East,83,5.4,5.7,100,0.00,,,0.00,TxWx,2013-07-01 13:18:00,
2013-07-01 09:23:00,71.9,72.0,30.64,East,83,8.4,8.4,100,0.00,,,0.00,TxWx,2013-07-01 13:23:00,
2013-07-01 09:29:00,71.9,72.0,30.64,East,83,8.4,8.7,100,0.00,,,0.00,TxWx,2013-07-01 13:29:00,
2013-07-01 09:34:00,71.9,72.0,30.64,East,83,6.9,8.4,100,0.00,,,0.00,TxWx,2013-07-01 13:34:00,
2013-07-01 09:39:00,71.9,72.0,30.64,East,83,10.2,10.2,100,0.00,,,0.00,TxWx,2013-07-01 13:39:00,
2013-07-01 09:44:00,72.3,72.0,30.64,East,83,4.8,5.7,100,0.00,,,0.00,TxWx,2013-07-01 13:44:00,
2013-07-01 09:49:00,72.7,73.0,30.64,East,83,7.5,7.5,100,0.00,,,0.00,TxWx,2013-07-01 13:49:00,
2013-07-01 09:54:00,72.5,73.0,30.64,East,83,8.7,8.7,100,0.00,,,0.00,TxWx,2013-07-01 13:54:00,
2013-07-01 09:59:00,72.7,73.0,30.64,East,83,8.7,8.7,100,0.00,,,0.00,TxWx,2013-07-01 13:59:00,
2013-07-01 10:04:00,72.8,73.0,30.64,East,83,7.2,7.2,100,0.00,,,0.00,TxWx,2013-07-01 14:04:00,
2013-07-01 10:09:00,72.8,73.0,30.64,East,83,9.9,10.5,100,0.00,,,0.00,TxWx,2013-07-01 14:09:00,
2013-07-01 10:14:00,73.0,73.0,30.65,East,83,10.8,12.6,100,0.00,,,0.00,TxWx,2013-07-01 14:14:00,
2013-07-01 10:19:00,73.3,73.0,30.65,East,83,4.8,5.1,100,0.00,,,0.00,TxWx,2013-07-01 14:19:00,
2013-07-01 10:25:00,73.3,73.0,30.65,East,83,5.4,6.3,100,0.00,,,0.00,TxWx,2013-07-01 14:25:00,
2013-07-01 10:30:00,73.1,73.0,30.65,East,83,16.5,16.5,100,0.00,,,0.00,TxWx,2013-07-01 14:30:00,
2013-07-01 10:35:00,73.5,74.0,30.65,East,83,7.8,7.8,100,0.00,,,0.00,TxWx,2013-07-01 14:35:00,
2013-07-01 10:40:00,73.5,73.0,30.64,East,84,6.9,7.8,100,0.00,,,0.00,TxWx,2013-07-01 14:40:00,
2013-07-01 10:45:00,74.3,74.0,30.64,East,83,5.4,5.4,100,0.00,,,0.00,TxWx,2013-07-01 14:45:00,
2013-07-01 10:51:00,74.3,74.0,30.64,East,83,6.0,6.6,100,0.00,,,0.00,TxWx,2013-07-01 14:51:00,
2013-07-01 10:56:00,73.9,74.0,30.65,East,83,11.7,11.7,99,0.00,,,0.00,TxWx,2013-07-01 14:56:00,
2013-07-01 11:01:00,74.1,74.0,30.65,East,83,5.4,5.7,99,0.00,,,0.00,TxWx,2013-07-01 15:01:00,
2013-07-01 11:06:00,73.8,74.0,30.65,East,83,10.2,10.2,99,0.00,,,0.00,TxWx,2013-07-01 15:06:00,
2013-07-01 11:12:00,74.0,74.0,30.65,East,83,5.7,6.0,100,0.00,,,0.00,TxWx,2013-07-01 15:12:00,
2013-07-01 11:17:00,74.1,74.0,30.65,East,83,7.8,7.8,100,0.00,,,0.00,TxWx,2013-07-01 15:17:00,
2013-07-01 11:22:00,74.0,74.0,30.65,East,83,8.4,9.6,100,0.00,,,0.00,TxWx,2013-07-01 15:22:00,
2013-07-01 11:27:00,74.4,74.0,30.65,East,83,4.8,5.4,100,0.00,,,0.00,TxWx,2013-07-01 15:27:00,
2013-07-01 11:32:00,74.7,75.0,30.65,East,84,5.4,6.0,100,0.00,,,0.00,TxWx,2013-07-01 15:32:00,
2013-07-01 11:37:00,74.7,75.0,30.65,East,83,5.7,5.7,99,0.00,,,0.00,TxWx,2013-07-01 15:37:00,
2013-07-01 11:42:00,74.8,75.0,30.65,East,84,9.3,9.6,99,0.00,,,0.00,TxWx,2013-07-01 15:42:00,
2013-07-01 11:47:00,74.6,75.0,30.65,East,83,8.4,8.4,99,0.00,,,0.00,TxWx,2013-07-01 15:47:00,
2013-07-01 11:53:00,74.8,75.0,30.66,East,83,4.5,4.8,99,0.00,,,0.00,TxWx,2013-07-01 15:53:00,
2013-07-01 11:58:00,74.8,75.0,30.65,East,83,9.6,9.6,99,0.00,,,0.00,TxWx,2013-07-01 15:58:00,
2013-07-01 12:03:00,75.2,75.0,30.66,East,84,6.3,7.2,99,0.00,,,0.00,TxWx,2013-07-01 16:03:00,
2013-07-01 12:08:00,75.3,74.0,30.65,East,83,13.8,13.8,98,0.00,,,0.00,TxWx,2013-07-01 16:08:00,
2013-07-01 12:13:00,75.3,74.0,30.65,East,83,6.9,6.9,97,0.00,,,0.00,TxWx,2013-07-01 16:13:00,
2013-07-01 12:18:00,75.8,75.0,30.65,East,83,8.1,8.7,97,0.00,,,0.00,TxWx,2013-07-01 16:18:00,
2013-07-01 12:23:00,75.5,75.0,30.65,East,83,9.0,9.0,97,0.00,,,0.00,TxWx,2013-07-01 16:23:00,
2013-07-01 12:28:00,75.4,74.0,30.65,East,83,7.2,7.2,98,0.00,,,0.00,TxWx,2013-07-01 16:28:00,
2013-07-01 12:33:00,75.6,75.0,30.65,East,83,7.8,7.8,97,0.00,,,0.00,TxWx,2013-07-01 16:33:00,
2013-07-01 12:38:00,75.1,74.0,30.65,East,84,10.2,10.5,97,0.00,,,0.00,TxWx,2013-07-01 16:38:00,
2013-07-01 12:43:00,75.3,74.0,30.65,East,83,9.6,9.6,97,0.00,,,0.00,TxWx,2013-07-01 16:43:00,
2013-07-01 12:49:00,75.3,74.0,30.65,East,83,11.1,12.0,97,0.00,,,0.00,TxWx,2013-07-01 16:49:00,
2013-07-01 12:54:00,75.8,75.0,30.65,East,83,9.9,9.9,97,0.00,,,0.00,TxWx,2013-07-01 16:54:00,
2013-07-01 12:59:00,75.6,75.0,30.65,East,83,7.5,7.8,96,0.00,,,0.00,TxWx,2013-07-01 16:59:00,
2013-07-01 13:04:00,75.9,75.0,30.65,East,83,4.2,5.1,96,0.00,,,0.00,TxWx,2013-07-01 17:04:00,
2013-07-01 13:10:00,75.9,75.0,30.65,East,83,9.0,9.0,96,0.00,,,0.00,TxWx,2013-07-01 17:10:00,
2013-07-01 13:15:00,76.5,76.0,30.65,East,84,4.8,6.0,96,0.00,,,0.00,TxWx,2013-07-01 17:15:00,
2013-07-01 13:20:00,76.5,75.0,30.65,East,83,11.1,11.7,95,0.00,,,0.00,TxWx,2013-07-01 17:20:00,
2013-07-01 13:25:00,76.3,74.0,30.65,East,83,13.2,13.2,95,0.00,,,0.00,TxWx,2013-07-01 17:25:00,
2013-07-01 13:30:00,76.4,74.0,30.65,East,83,10.5,10.5,95,0.00,,,0.00,TxWx,2013-07-01 17:30:00,
2013-07-01 13:36:00,76.6,75.0,30.65,East,84,7.8,7.8,94,0.00,,,0.00,TxWx,2013-07-01 17:36:00,
2013-07-01 13:41:00,76.3,74.0,30.65,East,83,9.3,9.3,94,0.00,,,0.00,TxWx,2013-07-01 17:41:00,
2013-07-01 13:46:00,76.9,75.0,30.64,East,84,7.2,9.0,94,0.00,,,0.00,TxWx,2013-07-01 17:46:00,
2013-07-01 13:51:00,77.3,75.0,30.64,East,84,14.1,15.0,93,0.00,,,0.00,TxWx,2013-07-01 17:51:00,
2013-07-01 13:56:00,77.3,75.0,30.64,East,83,11.1,11.1,93,0.00,,,0.00,TxWx,2013-07-01 17:56:00,
2013-07-01 14:01:00,77.0,75.0,30.64,East,83,6.3,7.8,93,0.00,,,0.00,TxWx,2013-07-01 18:01:00,
2013-07-01 14:06:00,77.1,74.0,30.64,East,83,10.2,10.2,92,0.00,,,0.00,TxWx,2013-07-01 18:06:00,
2013-07-01 14:11:00,76.5,75.0,30.64,East,83,12.3,13.5,93,0.00,,,0.00,TxWx,2013-07-01 18:11:00,
2013-07-01 14:16:00,76.3,74.0,30.64,East,83,5.1,5.7,94,0.00,,,0.00,TxWx,2013-07-01 18:16:00,
2013-07-01 14:22:00,76.5,74.0,30.64,East,83,9.6,9.6,94,0.00,,,0.00,TxWx,2013-07-01 18:22:00,
2013-07-01 14:27:00,76.8,75.0,30.64,East,83,9.9,9.9,93,0.00,,,0.00,TxWx,2013-07-01 18:27:00,
2013-07-01 14:32:00,77.2,75.0,30.64,East,83,6.0,6.3,93,0.00,,,0.00,TxWx,2013-07-01 18:32:00,
2013-07-01 14:37:00,76.9,74.0,30.64,East,83,9.6,9.6,92,0.00,,,0.00,TxWx,2013-07-01 18:37:00,
2013-07-01 14:42:00,77.2,75.0,30.64,East,84,6.6,6.6,93,0.00,,,0.00,TxWx,2013-07-01 18:42:00,
2013-07-01 14:47:00,77.2,74.0,30.65,East,84,10.5,10.8,91,0.00,,,0.00,TxWx,2013-07-01 18:47:00,
2013-07-01 14:52:00,77.0,74.0,30.65,East,83,9.3,9.9,92,0.00,,,0.00,TxWx,2013-07-01 18:52:00,
2013-07-01 14:58:00,76.9,74.0,30.65,East,83,7.2,7.2,92,0.00,,,0.00,TxWx,2013-07-01 18:58:00,
2013-07-01 15:03:00,76.8,74.0,30.65,East,83,21.0,21.0,92,0.00,,,0.00,TxWx,2013-07-01 19:03:00,
2013-07-01 15:08:00,76.7,74.0,30.65,East,83,9.6,9.6,92,0.00,,,0.00,TxWx,2013-07-01 19:08:00,
2013-07-01 15:13:00,76.6,74.0,30.66,East,83,6.3,6.3,92,0.00,,,0.00,TxWx,2013-07-01 19:13:00,
2013-07-01 15:18:00,76.3,74.0,30.66,East,83,6.3,6.6,93,0.00,,,0.01,TxWx,2013-07-01 19:18:00,
2013-07-01 15:24:00,76.1,74.0,30.66,East,83,5.1,7.2,94,0.00,,,0.01,TxWx,2013-07-01 19:24:00,
2013-07-01 15:29:00,75.9,74.0,30.66,East,83,10.2,10.2,94,0.06,,,0.01,TxWx,2013-07-01 19:29:00,
2013-07-01 15:34:00,75.8,74.0,30.66,East,83,9.3,9.3,95,0.06,,,0.01,TxWx,2013-07-01 19:34:00,
2013-07-01 15:39:00,75.7,75.0,30.66,East,83,7.5,8.4,96,0.00,,,0.01,TxWx,2013-07-01 19:39:00,
2013-07-01 15:44:00,75.4,74.0,30.66,East,83,6.6,6.6,96,0.00,,,0.02,TxWx,2013-07-01 19:44:00,
2013-07-01 15:50:00,75.2,74.0,30.65,East,83,7.8,8.4,97,0.06,,,0.02,TxWx,2013-07-01 19:50:00,
2013-07-01 15:55:00,75.2,74.0,30.65,East,83,4.2,4.2,97,0.06,,,0.03,TxWx,2013-07-01 19:55:00,
2013-07-01 16:00:00,75.2,74.0,30.66,East,83,3.6,4.2,98,0.12,,,0.05,TxWx,2013-07-01 20:00:00,
2013-07-01 16:03:00,72.9,73.0,30.73,East,83,3.9,4.5,99,0.00,,,0.00,TxWx,2013-07-01 20:03:00,
2013-07-01 16:04:00,72.9,73.0,30.73,East,83,3.3,3.3,99,0.00,,,0.00,TxWx,2013-07-01 20:04:00,
2013-07-01 16:05:00,74.8,74.0,30.66,East,83,6.3,6.9,98,0.12,,,0.06,TxWx,2013-07-01 20:05:00,
2013-07-01 16:06:00,72.9,73.0,30.73,East,83,8.1,8.1,99,0.00,,,0.00,TxWx,2013-07-01 20:06:00,
2013-07-01 16:07:00,72.9,73.0,30.73,East,83,5.4,5.4,99,0.00,,,0.00,TxWx,2013-07-01 20:07:00,
2013-07-01 16:08:00,72.9,73.0,30.73,East,83,5.7,5.7,99,0.00,,,0.00,TxWx,2013-07-01 20:08:00,
2013-07-01 16:09:00,72.9,73.0,30.73,East,84,3.9,4.2,99,0.00,,,0.00,TxWx,2013-07-01 20:09:00,
2013-07-01 16:10:00,74.5,73.0,30.66,East,83,15.0,15.0,98,0.12,,,0.07,TxWx,2013-07-01 20:10:00,
2013-07-01 16:11:00,72.9,73.0,30.73,East,83,5.4,6.9,99,0.00,,,0.00,TxWx,2013-07-01 20:11:00,
2013-07-01 16:12:00,72.8,73.0,30.73,East,83,5.7,5.7,99,0.00,,,0.00,TxWx,2013-07-01 20:12:00,
2013-07-01 16:13:00,72.8,73.0,30.73,East,84,4.2,4.8,99,0.00,,,0.00,TxWx,2013-07-01 20:13:00,
2013-07-01 16:14:00,72.8,73.0,30.73,East,83,6.9,7.5,99,0.00,,,0.00,TxWx,2013-07-01 20:14:00,
2013-07-01 16:15:00,72.8,73.0,30.73,East,83,8.1,8.1,99,0.00,,,0.00,TxWx,2013-07-01 20:15:00,
2013-07-01 16:16:00,74.3,73.0,30.67,East,83,12.3,12.9,97,0.12,,,0.07,TxWx,2013-07-01 20:16:00,
2013-07-01 16:17:00,72.7,73.0,30.73,East,83,5.7,6.0,99,0.00,,,0.00,TxWx,2013-07-01 20:17:00,
2013-07-01 16:18:00,72.7,73.0,30.73,East,83,8.4,9.0,99,0.00,,,0.00,TxWx,2013-07-01 20:18:00,
2013-07-01 16:19:00,72.7,73.0,30.73,East,83,8.4,9.0,99,0.00,,,0.00,TxWx,2013-07-01 20:19:00,
2013-07-01 16:20:00,72.7,73.0,30.73,East,83,7.2,7.2,99,0.00,,,0.00,TxWx,2013-07-01 20:20:00,
2013-07-01 16:21:00,74.2,73.0,30.67,East,83,12.0,14.1,97,0.12,,,0.08,TxWx,2013-07-01 20:21:00,
2013-07-01 16:22:00,72.7,73.0,30.73,East,83,9.0,9.6,99,0.00,,,0.00,TxWx,2013-07-01 20:22:00,
2013-07-01 16:23:00,72.7,73.0,30.73,East,83,7.8,8.4,99,0.00,,,0.00,TxWx,2013-07-01 20:23:00,
2013-07-01 16:24:00,72.7,73.0,30.73,East,83,6.0,6.0,99,0.00,,,0.00,TxWx,2013-07-01 20:24:00,
2013-07-01 16:25:00,72.7,73.0,30.73,East,83,8.4,8.4,99,0.00,,,0.00,TxWx,2013-07-01 20:25:00,
2013-07-01 16:26:00,74.0,73.0,30.67,East,83,8.4,8.4,97,0.12,,,0.09,TxWx,2013-07-01 20:26:00,
2013-07-01 16:27:00,72.7,73.0,30.73,East,83,7.8,7.8,99,0.00,,,0.00,TxWx,2013-07-01 20:27:00,
2013-07-01 16:28:00,72.7,73.0,30.73,East,83,6.0,6.6,99,0.00,,,0.00,TxWx,2013-07-01 20:28:00,
2013-07-01 16:29:00,72.7,73.0,30.73,East,83,6.0,6.0,99,0.00,,,0.00,TxWx,2013-07-01 20:29:00,
2013-07-01 16:30:00,72.7,73.0,30.73,East,84,4.5,5.4,99,0.00,,,0.00,TxWx,2013-07-01 20:30:00,
2013-07-01 16:31:00,73.8,73.0,30.67,East,83,7.5,8.1,97,0.06,,,0.09,TxWx,2013-07-01 20:31:00,
2013-07-01 16:32:00,72.7,73.0,30.73,East,84,4.8,5.4,99,0.00,,,0.00,TxWx,2013-07-01 20:32:00,
2013-07-01 16:33:00,72.7,73.0,30.73,East,83,3.3,3.6,99,0.00,,,0.00,TxWx,2013-07-01 20:33:00,
2013-07-01 16:34:00,72.7,73.0,30.73,East,83,4.5,5.1,99,0.00,,,0.00,TxWx,2013-07-01 20:34:00,
2013-07-01 16:35:00,72.7,73.0,30.73,East,83,6.3,6.3,99,0.00,,,0.00,TxWx,2013-07-01 20:35:00,
2013-07-01 16:36:00,73.5,73.0,30.67,East,83,10.5,12.0,97,0.06,,,0.09,TxWx,2013-07-01 20:36:00,
2013-07-01 16:37:00,72.7,73.0,30.73,East,83,6.6,6.9,99,0.00,,,0.00,TxWx,2013-07-01 20:37:00,
2013-07-01 16:38:00,72.7,73.0,30.73,East,83,9.0,9.0,99,0.00,,,0.00,TxWx,2013-07-01 20:38:00,
2013-07-01 16:39:00,72.8,73.0,30.73,East,84,3.9,4.8,99,0.00,,,0.00,TxWx,2013-07-01 20:39:00,
2013-07-01 16:40:00,72.8,73.0,30.73,East,83,7.5,8.1,99,0.00,,,0.00,TxWx,2013-07-01 20:40:00,
2013-07-01 16:41:00,72.7,73.0,30.73,East,83,10.2,10.2,99,0.00,,,0.00,TxWx,2013-07-01 20:41:00,
2013-07-01 16:42:00,73.5,72.0,30.67,East,83,7.8,7.8,97,0.00,,,0.09,TxWx,2013-07-01 20:42:00,
2013-07-01 16:43:00,72.8,73.0,30.73,East,83,6.6,6.6,99,0.00,,,0.00,TxWx,2013-07-01 20:43:00,
2013-07-01 16:44:00,72.8,73.0,30.73,East,83,6.3,7.2,99,0.00,,,0.00,TxWx,2013-07-01 20:44:00,
2013-07-01 16:45:00,72.8,73.0,30.73,East,83,4.2,5.1,99,0.00,,,0.00,TxWx,2013-07-01 20:45:00,
2013-07-01 16:46:00,72.8,73.0,30.73,East,83,5.1,5.4,99,0.00,,,0.00,TxWx,2013-07-01 20:46:00,
2013-07-01 16:47:00,73.4,72.0,30.67,East,83,6.9,7.2,97,0.00,,,0.09,TxWx,2013-07-01 20:47:00,
2013-07-01 16:48:00,72.8,73.0,30.73,East,84,6.6,7.2,99,0.00,,,0.00,TxWx,2013-07-01 20:48:00,
2013-07-01 16:49:00,72.8,73.0,30.73,East,83,4.8,4.8,99,0.00,,,0.00,TxWx,2013-07-01 20:49:00,
2013-07-01 16:50:00,72.8,73.0,30.73,East,83,4.8,6.0,99,0.00,,,0.00,TxWx,2013-07-01 20:50:00,
2013-07-01 16:52:00,73.4,72.0,30.67,East,83,5.4,6.0,97,0.00,,,0.09,TxWx,2013-07-01 20:52:00,
2013-07-01 16:53:00,72.7,73.0,30.73,East,83,5.7,6.3,99,0.00,,,0.00,TxWx,2013-07-01 20:53:00,
2013-07-01 16:54:00,72.7,73.0,30.73,East,83,6.0,7.5,99,0.00,,,0.00,TxWx,2013-07-01 20:54:00,
2013-07-01 16:55:00,72.8,73.0,30.73,East,83,5.1,6.0,99,0.00,,,0.00,TxWx,2013-07-01 20:55:00,
2013-07-01 16:57:00,73.3,72.0,30.67,East,83,6.0,6.0,97,0.12,,,0.11,TxWx,2013-07-01 20:57:00,
2013-07-01 16:58:00,72.8,73.0,30.73,East,83,8.7,11.1,99,0.00,,,0.00,TxWx,2013-07-01 20:58:00,
2013-07-01 17:02:00,73.2,72.0,30.66,East,83,4.8,4.8,97,0.12,,,0.11,TxWx,2013-07-01 21:02:00,
2013-07-01 17:07:00,73.5,72.0,30.66,East,83,4.5,4.8,97,0.00,,,0.11,TxWx,2013-07-01 21:07:00,
2013-07-01 17:12:00,73.5,72.0,30.66,East,83,5.4,6.0,97,0.00,,,0.11,TxWx,2013-07-01 21:12:00,
2013-07-01 17:18:00,73.5,73.0,30.65,East,83,6.0,6.0,97,0.00,,,0.11,TxWx,2013-07-01 21:18:00,
2013-07-01 17:23:00,73.5,73.0,30.65,East,83,4.5,5.4,98,0.00,,,0.11,TxWx,2013-07-01 21:23:00,
2013-07-01 17:28:00,73.4,72.0,30.65,East,83,6.0,6.6,98,0.00,,,0.11,TxWx,2013-07-01 21:28:00,
2013-07-01 17:34:00,73.4,72.0,30.65,East,83,9.0,9.0,98,0.00,,,0.11,TxWx,2013-07-01 21:34:00,
2013-07-01 17:39:00,73.6,73.0,30.65,East,83,4.5,4.8,98,0.00,,,0.11,TxWx,2013-07-01 21:39:00,
2013-07-01 17:44:00,73.5,72.0,30.65,East,83,6.3,6.3,97,0.00,,,0.11,TxWx,2013-07-01 21:44:00,
2013-07-01 17:49:00,73.4,72.0,30.66,East,83,4.2,4.8,97,0.00,,,0.11,TxWx,2013-07-01 21:49:00,
2013-07-01 17:54:00,73.6,73.0,30.66,East,83,5.7,6.0,97,0.00,,,0.11,TxWx,2013-07-01 21:54:00,
2013-07-01 18:00:00,73.5,73.0,30.66,East,83,5.4,5.4,97,0.00,,,0.11,TxWx,2013-07-01 22:00:00,
2013-07-01 18:05:00,73.5,73.0,30.65,East,83,9.3,9.3,97,0.00,,,0.11,TxWx,2013-07-01 22:05:00,
2013-07-01 18:10:00,73.6,73.0,30.66,East,83,7.5,7.8,97,0.00,,,0.11,TxWx,2013-07-01 22:10:00,
2013-07-01 18:15:00,73.4,72.0,30.66,East,83,9.0,9.9,96,0.00,,,0.11,TxWx,2013-07-01 22:15:00,
2013-07-01 18:20:00,73.6,73.0,30.66,East,83,5.7,5.7,97,0.00,,,0.11,TxWx,2013-07-01 22:20:00,
2013-07-01 18:25:00,73.7,73.0,30.66,East,83,3.9,4.5,97,0.00,,,0.11,TxWx,2013-07-01 22:25:00,
2013-07-01 18:31:00,73.8,73.0,30.67,East,83,4.8,5.1,97,0.00,,,0.11,TxWx,2013-07-01 22:31:00,
2013-07-01 18:36:00,73.8,73.0,30.67,East,83,5.7,6.6,97,0.00,,,0.11,TxWx,2013-07-01 22:36:00,
2013-07-01 18:41:00,73.7,73.0,30.67,East,83,6.3,7.2,97,0.00,,,0.11,TxWx,2013-07-01 22:41:00,
2013-07-01 18:46:00,73.8,73.0,30.67,East,83,5.1,5.1,97,0.00,,,0.11,TxWx,2013-07-01 22:46:00,
2013-07-01 18:51:00,73.5,72.0,30.67,East,83,6.6,6.6,97,0.00,,,0.11,TxWx,2013-07-01 22:51:00,
2013-07-01 18:57:00,73.5,73.0,30.68,East,83,4.5,6.0,98,0.00,,,0.11,TxWx,2013-07-01 22:57:00,
2013-07-01 19:02:00,73.5,73.0,30.68,East,83,6.9,7.5,98,0.00,,,0.11,TxWx,2013-07-01 23:02:00,
2013-07-01 19:07:00,73.3,72.0,30.68,East,83,6.6,7.5,98,0.00,,,0.11,TxWx,2013-07-01 23:07:00,
2013-07-01 19:12:00,73.2,72.0,30.69,East,83,7.5,8.1,98,0.00,,,0.11,TxWx,2013-07-01 23:12:00,
2013-07-01 19:17:00,73.0,72.0,30.69,East,83,9.0,10.5,98,0.00,,,0.11,TxWx,2013-07-01 23:17:00,
2013-07-01 19:22:00,72.7,73.0,30.69,East,83,7.2,7.5,99,0.00,,,0.11,TxWx,2013-07-01 23:22:00,
2013-07-01 19:28:00,72.7,73.0,30.69,East,83,9.3,9.3,99,0.00,,,0.11,TxWx,2013-07-01 23:28:00,
2013-07-01 19:33:00,72.6,73.0,30.69,East,83,9.9,10.2,99,0.00,,,0.11,TxWx,2013-07-01 23:33:00,
2013-07-01 19:38:00,72.5,72.0,30.69,East,83,10.2,10.2,99,0.00,,,0.11,TxWx,2013-07-01 23:38:00,
2013-07-01 19:43:00,72.4,72.0,30.69,East,83,6.6,6.6,99,0.00,,,0.11,TxWx,2013-07-01 23:43:00,
2013-07-01 19:49:00,72.4,72.0,30.70,East,83,5.4,6.0,100,0.00,,,0.11,TxWx,2013-07-01 23:49:00,
2013-07-01 19:54:00,72.4,72.0,30.69,East,83,6.9,7.2,100,0.00,,,0.11,TxWx,2013-07-01 23:54:00,
2013-07-01 19:59:00,72.5,72.0,30.70,East,83,6.9,6.9,100,0.00,,,0.11,TxWx,2013-07-01 23:59:00,
2013-07-01 20:04:00,72.6,73.0,30.70,East,83,5.4,5.4,100,0.00,,,0.11,TxWx,2013-07-02 00:04:00,
2013-07-01 20:09:00,72.6,73.0,30.71,East,83,4.2,4.2,100,0.00,,,0.11,TxWx,2013-07-02 00:09:00,
2013-07-01 20:14:00,72.6,73.0,30.71,East,83,5.4,5.7,100,0.00,,,0.11,TxWx,2013-07-02 00:14:00,
2013-07-01 20:19:00,72.6,73.0,30.71,East,83,3.3,3.3,100,0.00,,,0.11,TxWx,2013-07-02 00:19:00,
2013-07-01 20:25:00,72.6,73.0,30.71,East,83,6.3,8.4,100,0.00,,,0.11,TxWx,2013-07-02 00:25:00,
2013-07-01 20:30:00,72.7,73.0,30.71,East,83,7.2,7.8,100,0.00,,,0.11,TxWx,2013-07-02 00:30:00,
2013-07-01 20:35:00,72.9,73.0,30.70,East,83,4.5,4.5,100,0.00,,,0.11,TxWx,2013-07-02 00:35:00,
2013-07-01 20:40:00,73.0,73.0,30.71,East,83,5.4,6.6,99,0.00,,,0.11,TxWx,2013-07-02 00:40:00,
2013-07-01 20:45:00,72.9,73.0,30.71,East,83,7.5,7.8,99,0.00,,,0.11,TxWx,2013-07-02 00:45:00,
2013-07-01 20:50:00,72.9,73.0,30.71,East,83,6.0,6.3,99,0.00,,,0.11,TxWx,2013-07-02 00:50:00,
2013-07-01 20:56:00,72.9,73.0,30.70,East,83,7.8,9.0,99,0.00,,,0.11,TxWx,2013-07-02 00:56:00,
2013-07-01 21:01:00,72.9,73.0,30.71,East,83,9.0,9.0,99,0.00,,,0.11,TxWx,2013-07-02 01:01:00,
2013-07-01 21:06:00,72.8,73.0,30.71,East,83,5.4,5.4,99,0.00,,,0.11,TxWx,2013-07-02 01:06:00,
2013-07-01 21:11:00,72.8,73.0,30.71,East,83,7.2,7.2,99,0.00,,,0.11,TxWx,2013-07-02 01:11:00,
2013-07-01 21:17:00,72.8,73.0,30.72,East,83,5.1,5.7,99,0.00,,,0.11,TxWx,2013-07-02 01:17:00,
2013-07-01 21:22:00,72.7,73.0,30.71,East,83,4.8,4.8,99,0.00,,,0.11,TxWx,2013-07-02 01:22:00,
2013-07-01 21:27:00,72.6,73.0,30.72,East,83,2.7,3.0,99,0.00,,,0.11,TxWx,2013-07-02 01:27:00,
2013-07-01 21:32:00,72.6,73.0,30.72,East,83,5.7,5.7,100,0.00,,,0.11,TxWx,2013-07-02 01:32:00,
2013-07-01 21:38:00,72.6,73.0,30.72,East,83,4.8,4.8,100,0.00,,,0.11,TxWx,2013-07-02 01:38:00,
2013-07-01 21:43:00,72.6,73.0,30.72,East,83,7.5,7.5,100,0.00,,,0.11,TxWx,2013-07-02 01:43:00,
2013-07-01 21:48:00,72.6,73.0,30.72,East,83,5.7,5.7,100,0.00,,,0.11,TxWx,2013-07-02 01:48:00,
2013-07-01 21:53:00,72.8,73.0,30.72,East,83,6.6,6.6,100,0.00,,,0.11,TxWx,2013-07-02 01:53:00,
2013-07-01 21:58:00,72.8,73.0,30.72,East,83,4.5,5.4,100,0.00,,,0.11,TxWx,2013-07-02 01:58:00,
2013-07-01 22:03:00,72.8,73.0,30.72,East,83,5.7,6.0,100,0.00,,,0.11,TxWx,2013-07-02 02:03:00,
2013-07-01 22:09:00,72.9,73.0,30.72,East,83,5.1,5.4,100,0.00,,,0.11,TxWx,2013-07-02 02:09:00,
2013-07-01 22:14:00,73.0,73.0,30.73,East,83,6.3,6.3,100,0.00,,,0.11,TxWx,2013-07-02 02:14:00,
2013-07-01 22:19:00,73.0,73.0,30.72,East,83,5.7,5.7,100,0.00,,,0.11,TxWx,2013-07-02 02:19:00,
2013-07-01 22:25:00,73.0,73.0,30.72,East,83,4.5,4.5,99,0.00,,,0.11,TxWx,2013-07-02 02:25:00,
2013-07-01 22:30:00,73.0,73.0,30.72,East,83,7.5,7.5,99,0.00,,,0.11,TxWx,2013-07-02 02:30:00,
2013-07-01 22:35:00,73.0,73.0,30.72,East,83,4.5,5.4,99,0.00,,,0.11,TxWx,2013-07-02 02:35:00,
2013-07-01 22:40:00,72.9,73.0,30.72,East,83,5.1,5.7,99,0.00,,,0.11,TxWx,2013-07-02 02:40:00,
2013-07-01 22:45:00,72.8,73.0,30.72,East,83,7.2,7.2,99,0.00,,,0.11,TxWx,2013-07-02 02:45:00,
2013-07-01 22:50:00,72.7,73.0,30.72,East,83,6.0,6.3,100,0.00,,,0.11,TxWx,2013-07-02 02:50:00,
2013-07-01 22:55:00,72.6,73.0,30.72,East,83,9.6,9.6,100,0.00,,,0.11,TxWx,2013-07-02 02:55:00,
2013-07-01 23:01:00,72.5,73.0,30.72,East,83,9.3,10.2,100,0.00,,,0.11,TxWx,2013-07-02 03:01:00,
2013-07-01 23:06:00,72.6,73.0,30.72,East,83,6.0,6.3,100,0.00,,,0.11,TxWx,2013-07-02 03:06:00,
2013-07-01 23:11:00,72.5,73.0,30.72,East,83,5.4,5.4,100,0.00,,,0.11,TxWx,2013-07-02 03:11:00,
2013-07-01 23:16:00,72.5,73.0,30.73,East,83,9.3,9.3,100,0.00,,,0.11,TxWx,2013-07-02 03:16:00,
2013-07-01 23:21:00,72.6,73.0,30.73,East,84,0.6,1.8,100,0.00,,,0.11,TxWx,2013-07-02 03:21:00,
2013-07-01 23:26:00,72.7,73.0,30.73,East,83,5.4,5.4,100,0.00,,,0.11,TxWx,2013-07-02 03:26:00,
2013-07-01 23:31:00,72.7,73.0,30.73,East,83,6.9,7.2,100,0.00,,,0.11,TxWx,2013-07-02 03:31:00,
2013-07-01 23:36:00,72.8,73.0,30.73,East,83,5.1,5.1,100,0.00,,,0.11,TxWx,2013-07-02 03:36:00,
2013-07-01 23:41:00,72.8,73.0,30.73,East,83,4.5,5.1,100,0.00,,,0.11,TxWx,2013-07-02 03:41:00,
2013-07-01 23:47:00,72.9,73.0,30.73,East,83,5.7,5.7,100,0.00,,,0.11,TxWx,2013-07-02 03:47:00,
2013-07-01 23:52:00,72.9,73.0,30.73,East,83,8.7,9.0,100,0.00,,,0.11,TxWx,2013-07-02 03:52:00,
2013-07-01 23:57:00,72.9,73.0,30.73,East,83,6.3,6.9,99,0.00,,,0.00,TxWx,2013-07-02 03:57:00,